Vorticity
6 8 8 5 3 3 3 6 6 5 5 5 6 8 8 6 6 8 9 11 9 9 14 17 20 7 7 8 8 7 8 10
7 6 4 3 3 3 4 5 5 6 6 10 12 8 6 9 7 8 8 12 20 13 9 7 3 10 9 10 14 15 17 12
4 5 4 5 4 3 5 6 5 8 10 8 6 9 10 7 8 11 13 7 3 -0 1 13 9 10 11 11 11 12 13 14
7 8 5 7 4 7 9 7 8 11 11 10 13 11 4 8 10 8 4 5 -3 7 15 7 12 11 13 12 14 13 13 12
11 8 10 8 10 7 10 10 7 9 15 10 7 5 6 12 3 10 -1 4 16 15 8 11 11 11 15 16 17 16 12 9
9 7 8 11 12 14 13 13 14 9 6 10 8 6 8 6 6 -1 6 19 9 13 12 12 14 17 20 21 21 19 18 15
9 10 5 11 14 17 15 10 7 10 10 8 5 7 -0 -5 2 15 15 16 10 12 15 15 20 21 21 20 22 25 18 15
6 11 17 25 15 14 6 6 9 13 7 9 7 7 1 15 18 13 13 10 14 14 14 17 17 7 12 9 11 28 20 16
20 22 13 9 15 6 7 12 13 13 7 3 -1 3 19 15 15 14 12 12 14 11 13 13 5 5 10 4 14 21 20 18
13 18 15 16 6 8 10 13 12 10 6 10 14 17 11 14 14 7 11 13 13 12 13 9 17 23 20 18 16 17 20 16
19 17 10 2 7 8 10 7 7 7 5 6 12 1 12 14 5 9 13 13 14 11 14 14 19 16 12 17 12 18 17 15
12 8 7 10 4 7 8 10 8 8 8 19 6 5 15 7 8 14 14 13 14 13 11 7 12 12 10 6 11 18 15 15
9 5 5 7 13 15 9 7 9 11 9 7 11 15 7 7 13 16 13 11 15 9 9 9 7 14 11 13 14 10 14 16
5 3 11 11 11 8 5 13 5 7 16 7 15 10 4 10 12 6 7 8 8 11 10 9 12 20 12 15 12 14 13 13
-1 15 7 2 8 5 1 10 14 12 15 18 13 4 6 11 9 1 1 13 13 14 11 12 15 13 13 12 11 9 9 8
6 12 2 4 6 6 9 14 15 15 17 12 6 6 10 15 8 4 2 18 18 12 11 15 13 10 9 9 9 9 8 7
9 5 3 3 9 10 11 16 15 18 11 10 7 7 11 13 11 7 6 10 10 10 12 17 10 10 8 7 7 9 9 9
5 3 6 9 11 14 18 14 13 11 10 8 5 7 6 12 10 8 7 11 11 14 18 15 10 9 7 7 7 7 7 7
7 6 12 13 15 15 15 11 11 11 9 7 5 7 6 9 13 8 3 10 13 16 17 11 9 8 7 7 6 6 7 7
Height
5760 5758 5755 5752 5749 5746 5744 5742 5739 5736 5733 5731 5727 5723 5719 5714 5710 5705 5702 5699 5695 5691 5687 5684 5680 5676 5673 5669 5665 5662 5661 5659
5751 5749 5746 5743 5740 5737 5733 5730 5727 5725 5723 5719 5716 5711 5706 5701 5697 5694 5691 5687 5683 5679 5676 5671 5667 5662 5659 5655 5650 5647 5643 5643
5741 5738 5736 5733 5730 5726 5723 5719 5716 5713 5710 5707 5702 5697 5693 5688 5685 5682 5678 5674 5671 5668 5664 5659 5654 5649 5644 5640 5636 5632 5628 5627
5729 5727 5724 5721 5717 5714 5711 5708 5705 5701 5699 5695 5690 5685 5681 5678 5674 5671 5668 5665 5661 5656 5650 5645 5639 5634 5629 5625 5621 5617 5613 5611
5717 5715 5712 5709 5706 5703 5700 5696 5692 5690 5686 5682 5678 5675 5671 5667 5663 5660 5657 5652 5646 5640 5635 5630 5625 5619 5614 5609 5606 5602 5599 5597
5706 5703 5700 5698 5695 5691 5687 5685 5681 5678 5675 5671 5668 5664 5661 5657 5653 5649 5645 5639 5635 5628 5622 5616 5610 5604 5599 5594 5590 5587 5585 5585
5695 5692 5689 5686 5682 5680 5677 5673 5670 5667 5664 5660 5657 5654 5650 5647 5643 5639 5633 5627 5622 5615 5610 5604 5598 5593 5588 5583 5578 5575 5573 5573
5682 5679 5676 5673 5670 5669 5666 5663 5660 5656 5652 5650 5647 5644 5640 5636 5632 5627 5622 5617 5611 5605 5600 5594 5589 5583 5578 5574 5569 5565 5562 5562
5667 5665 5663 5661 5660 5657 5655 5652 5650 5646 5642 5640 5637 5634 5630 5626 5621 5617 5612 5606 5600 5595 5590 5585 5579 5574 5569 5565 5560 5556 5554 5554
5654 5653 5651 5650 5649 5646 5643 5641 5638 5635 5633 5631 5628 5625 5620 5616 5612 5606 5601 5596 5591 5586 5581 5576 5570 5565 5560 5556 5553 5550 5548 5547
5643 5642 5640 5639 5638 5635 5632 5630 5628 5625 5624 5621 5618 5614 5610 5606 5601 5596 5592 5587 5582 5578 5573 5568 5563 5558 5554 5550 5547 5545 5543 5541
5632 5631 5630 5628 5626 5624 5622 5620 5618 5616 5613 5609 5606 5604 5600 5596 5592 5587 5583 5579 5574 5570 5566 5561 5557 5552 5549 5546 5543 5540 5538 5537
5620 5620 5619 5618 5615 5613 5612 5610 5608 5605 5602 5600 5597 5594 5591 5588 5583 5580 5576 5571 5567 5563 5559 5555 5551 5547 5543 5541 5539 5536 5534 5533
5610 5609 5609 5607 5605 5603 5602 5601 5598 5596 5593 5590 5588 5586 5583 5580 5576 5572 5569 5564 5560 5556 5553 5550 5545 5541 5539 5536 5534 5532 5530 5529
5601 5599 5599 5598 5595 5594 5593 5592 5589 5585 5583 5582 5580 5578 5575 5572 5568 5565 5561 5556 5552 5549 5547 5544 5540 5537 5535 5532 5531 5529 5527 5525
5592 5591 5589 5587 5586 5585 5584 5581 5578 5576 5575 5573 5572 5570 5567 5564 5560 5557 5553 5549 5545 5542 5541 5538 5535 5533 5531 5529 5527 5525 5523 5521
5581 5580 5579 5577 5577 5575 5573 5571 5569 5568 5566 5565 5564 5561 5558 5555 5551 5549 5546 5542 5539 5536 5534 5532 5529 5528 5525 5523 5521 5520 5518 5515
5571 5570 5568 5567 5566 5565 5563 5561 5560 5559 5558 5557 5556 5553 5550 5546 5543 5541 5538 5535 5532 5529 5527 5525 5524 5522 5519 5517 5515 5513 5510 5508
5560 5559 5558 5557 5556 5555 5554 5553 5552 5551 5550 5549 5547 5545 5542 5538 5535 5533 5530 5528 5524 5521 5520 5518 5517 5515 5513 5511 5509 5506 5503 5501